Showing default

SKYKRAFT-1A, 55054

Orbit data source: Space-Track

SKYKRAFT-1A, 55054 is a payload satellite owned by SkyKraft (AU) in SSO that was launched on Tue, 03 Jan 2023 UTC via an FALCON 9 launch vehicle from the Air Force Eastern Test Range (AFETR). Payload-class satellites include a variety of spacecraft equipped with specific instruments for various scientific and technological missions. These include communications satellites like Starlink; space stations such as the ISS; scientific satellites like the Hubble; Earth observation satellites from companies like Planet Labs, Umbra, and HawkEye 360; GPS; miniature CubeSats for education and research; and military/defense satellites.

Loading next visibility...
Identifier
55054, 2023-001AX
Orbit
SSO
Country
Flag of AUAU / AUS
Related business
Manufacturer
SkyKraft
Mission
Operational Commercial Communications
Bus & Motor
SKYKRAFT, Unknown motor
Mass
~50 kg wet, ~50 kg dry
Launch date (UTC)
2023-01-03 (3 years ago)
Launch vehicle
FALCON 9
Launch site
Air Force Eastern Test Range (AFETR)
Object type
Payload
Rocket body
Debris
Shape & HBR
Box, 0.3 m
Radar Cross Section
0.065 m², Medium (>0.1 m² and < 1m²)

Expand to show TLE details & history
Last TLE update: 18 hours ago

TLE from 18 hours ago
0 SKYKRAFT-1A
1 55054U 23001AX  25286.59852520  .00007382  00000-0  28986-3 0  9990
2 55054  97.3600 342.7835 0008767 286.2558  73.7715 15.25968231154071
Epoch: 2025-10-13T14:21Z
TLE epoch observation values (Epoch: 2025-10-13T14:21:52.577Z)
Latitude
-0.00009°
Longitude
104.91544°
Altitude
489.302 km
Speed
7.621 km/s
True Right ascension
22h 51m 08s
True Declination
0° 00' 00"
Sunlit
Object was in full shadow at epoch
Visualization orbit readout
Latitude
Unknown
Longitude
Unknown
Altitude
Unknown
Speed
Unknown
Apparent Right ascension
Unknown
Apparent Declination
Unknown
Sunlit
N/A
Visualization observer readout
Local Sidereal Time
02:30:13
Azimuth
Unknown
Elevation
Unknown
Doppler factor
Unknown
Orbital elements
Apogee altitude
490.852 km
Perigee altitude
478.819 km
Semi-major axis
6,862.972 km
Eccentricity
0.00088
Inclination
97.36°
RAAN
342.7835°
Arg. of periapsis
286.2558°
True anomaly
73.86799°
Mean anomaly
73.7715°
Eccentric anomaly
73.81974°
Mean motion
3.81746 °/min
Orbital period
94.3 mins
BSTAR
0.00028986
Loading maneuver chart data...
Computing Atmospheric mass density...
Loading historical data...
Loading historical data...
Loading historical data...
Loading historical data...
Loading historical data...
Loading historical data...
Loading historical data...

Documentation

Showing up to 5 results
|